Christchurch Automated, New Zealand

8:20 PM NZDT on September 29, 2016 (GMT +1300)
Christchurch International

Weather History for NZCH - October, 2012

Change the Weather History Date:

Monday, October 29, 2012

  Actual Average Record
Temperature  
Mean Temperature 54 °F -  
Max Temperature 66 °F 62 °F 75 °F (1996)
Min Temperature 41 °F 43 °F 32 °F (2002)
Degree Days  
Heating Degree Days 12    
Growing Degree Days 4 (Base 50)    
Moisture  
Dew Point 46 °F    
Average Humidity 76    
Maximum Humidity 100    
Minimum Humidity 52    
Precipitation  
Precipitation 0.00 in - - ()
Sea Level Pressure  
Sea Level Pressure 29.93 in    
Wind  
Wind Speed 5 mph ()    
Max Wind Speed 18 mph    
Max Gust Speed -    
Visibility 6.2 miles    
Events      
Averages and records for this station are not official NWS values.
T = Trace of Precipitation, MM = Missing Value Source: Averaged Metar Reports

Daily Weather History Graph

Daily Weather History Graph

Search for Another Location

Airport or City:

Trip Planner

Search our weather history database for the weather conditions in past years. The results will help you decide how hot, cold, wet, or windy it might be!

Date:

Astronomy

Oct. 29, 2012 Rise Set
Actual Time 6:16 AM NZDT 8:11 PM NZDT
Civil Twilight 5:45 AM NZDT 8:42 PM NZDT
Nautical Twilight 5:08 AM NZDT 9:20 PM NZDT
Astronomical Twilight 4:27 AM NZDT 10:01 PM NZDT
Moon 7:40 PM NZDT 5:35 AM NZDT
Length of Visible Light 14h 56m
Length of Day
13h 55m
Waxing Gibbous, 99% of the Moon is Illuminated
Oct 29
Waxing Gibbous
Oct 30
Full
Nov 7
Last Quarter
Nov 14
New
Nov 21
First Quarter

Hourly Weather History & Observations

Time (NZDT) Temp. Windchill Dew Point Humidity Pressure Visibility Wind Dir Wind Speed Gust Speed Precip Events Conditions
12:00 AM 50.0 °F - 46.4 °F 87% 29.83 in - East 3.5 mph - N/A   Clear
1:00 AM 44.6 °F 43.1 °F 41.0 °F 87% 29.86 in 6.2 mi WSW 3.5 mph - N/A   Scattered Clouds
2:00 AM 48.2 °F - 46.4 °F 93% 29.86 in 6.2 mi West 5.8 mph - N/A   Mostly Cloudy
3:00 AM 48.2 °F - 46.4 °F 93% 29.86 in 6.2 mi North 3.5 mph - N/A   Scattered Clouds
4:00 AM 44.6 °F - 42.8 °F 93% 29.89 in 6.2 mi SW 1.2 mph - N/A   Scattered Clouds
5:00 AM 44.6 °F 43.1 °F 44.6 °F 100% 29.89 in 6.2 mi SW 3.5 mph - N/A   Partly Cloudy
6:00 AM 42.8 °F 41.1 °F 42.8 °F 100% 29.92 in 6.2 mi WSW 3.5 mph - N/A   Scattered Clouds
7:00 AM 41.0 °F 39.0 °F 41.0 °F 100% 29.92 in 6.2 mi NNE 3.5 mph - N/A   Scattered Clouds
8:00 AM 46.4 °F - 46.4 °F 100% 29.95 in 6.2 mi NNW 1.2 mph - N/A   Scattered Clouds
9:00 AM 53.6 °F - 51.8 °F 94% 29.95 in - NW 1.2 mph - N/A   Clear
10:00 AM 59.0 °F - 50.0 °F 72% 29.95 in 6.2 mi NNE 3.5 mph - N/A   Partly Cloudy
11:00 AM 62.6 °F - 50.0 °F 63% 29.98 in 6.2 mi North 5.8 mph - N/A   Partly Cloudy
12:00 PM 64.4 °F - 46.4 °F 52% 29.98 in 6.2 mi NNE 4.6 mph - N/A   Partly Cloudy
1:00 PM 66.2 °F - 48.2 °F 52% 29.95 in 6.2 mi SSW 3.5 mph - N/A   Partly Cloudy
2:00 PM 66.2 °F - 48.2 °F 52% 29.95 in 6.2 mi NE 9.2 mph - N/A   Scattered Clouds
3:00 PM 66.2 °F - 48.2 °F 52% 29.95 in 6.2 mi NE 13.8 mph - N/A   Partly Cloudy
4:00 PM 64.4 °F - 46.4 °F 52% 29.95 in 6.2 mi NE 15.0 mph - N/A   Partly Cloudy
5:00 PM 62.6 °F - 44.6 °F 52% 29.95 in - ENE 16.1 mph - N/A   Clear
6:00 PM 60.8 °F - 44.6 °F 55% 29.95 in - ENE 18.4 mph - N/A   Clear
7:00 PM 59.0 °F - 46.4 °F 63% 29.95 in - ENE 17.3 mph - N/A   Clear
8:00 PM 55.4 °F - 48.2 °F 77% 29.98 in - ENE 13.8 mph - N/A   Clear
9:00 PM 53.6 °F - 48.2 °F 82% 29.98 in - East 11.5 mph - N/A   Clear
10:00 PM 53.6 °F - 48.2 °F 82% 29.98 in - East 11.5 mph - N/A   Clear
11:00 PM 53.6 °F - 48.2 °F 82% 29.98 in - East 11.5 mph - N/A   Clear